Starlink 4102

operational
NORAD ID: 53143 Int'l Des: 2022-083 Owner: SPXS Country: US Constellation: starlink
LEOCIRCULAR

Über Starlink 4102

Beschreibung wird geladen...

Live-Position

3D-Globus wird geladen...

Nächste Überflüge

Höhenverlauf

Altitude vs Time

uPlot chart will show altitude changes over time

Zweizeiliger Elementsatz

1 53143U 22083M 25351.83506671 -.00000738 00000-0 -28265-4 0 9990
2 53143 53.2172 181.5809 0001505 95.7562 264.3601 15.08830868188865
Epoch: 17. Dez. 2025 • Age: 11 hours

Aktueller Status

Höhe 555.1 km
Geschwindigkeit 7.58 km/s
Subsatellitenpunkt -43.33°S, 142.5°W
Startdatum 17. Juli 2022
Alter 3.4 years
Typ internet

Technische Details

Klassifizierung Payload
Masse 297.00 kg
Trockenmasse 275.00 kg
Gesamtmasse 297.00 kg
Länge 0.20 m
Durchmesser 2.80 m
Spannweite 9.00 m
Form Box + pan
Hersteller SPXS
Bus-Typ Starlink
Phasenstatus In Orbit
Besitzer/Staat SPXS/US

Große Konstellationen

Loading constellations...